DW5056 Weather Reports


Display with metric or nautical units.
time (UTC)temp
F
wind
direction
speed
MPH
gust
MPH
rain 1hr
in
rain 24hr
in
rain mn
in
humidity
%
barometer
mb
20260507065815 53 15 0.0 2.0 0.00 0.00 0.00 80 1015.6
20260507065328 52 65 1.0 3.0 0.00 0.00 0.00 80 1015.6
20260507064823 52 15 2.0 5.0 0.00 0.00 0.00 80 1015.6
20260507064325 52 236 1.0 5.0 0.00 0.00 0.00 81 1015.7
20260507063832 51 37 2.0 6.0 0.00 0.00 0.00 81 1015.6
20260507063335 51 21 4.0 6.0 0.00 0.00 0.00 81 1015.7
20260507062858 51 302 2.0 7.0 0.00 0.00 0.00 81 1015.6
20260507062325 51 351 5.0 7.0 0.00 0.00 0.00 81 1015.6
20260507061824 51 317 3.0 7.0 0.00 0.00 0.00 82 1015.5
20260507061318 51 314 3.0 6.0 0.00 0.00 0.00 82 1015.5
20260507060831 51 339 4.0 6.0 0.00 0.00 0.00 83 1015.4
20260507060327 51 6 2.0 3.0 0.00 0.00 0.00 84 1015.4
20260507055819 51 347 2.0 3.0 0.00 0.00 0.00 85 1015.3
20260507055325 50 349 0.0 3.0 0.00 0.00 0.00 85 1015.3
20260507054827 50 33 2.0 4.0 0.00 0.00 0.00 85 1015.3
20260507054321 50 6 2.0 4.0 0.00 0.00 0.00 85 1015.3
20260507053817 50 11 1.0 2.0 0.00 0.00 0.00 85 1015.2
20260507053400 50 27 0.0 2.0 0.00 0.00 0.00 85 1015.2
20260507052813 50 27 1.0 2.0 0.00 0.00 0.00 85 1015.1
20260507052348 50 353 1.0 5.0 0.00 0.00 0.00 85 1015.1
20260507051822 50 343 1.0 6.0 0.00 0.00 0.00 85 1015.0
20260507051324 50 353 3.0 6.0 0.00 0.00 0.00 85 1015.0
20260507050813 50 330 3.0 6.0 0.00 0.00 0.00 86 1014.9
20260507050333 50 359 1.0 3.0 0.00 0.00 0.00 86 1014.8
20260507045825 50 27 1.0 3.0 0.00 0.00 0.00 86 1014.8
20260507045331 50 49 0.0 1.0 0.00 0.00 0.00 86 1014.8
20260507044852 50 49 0.0 0.0 0.00 0.00 0.00 86 1014.6
20260507044334 50 49 0.0 0.0 0.00 0.00 0.00 86 1014.6
20260507043819 50 50 0.0 0.0 0.00 0.00 0.00 86 1014.6
20260507043340 50 49 0.0 0.0 0.00 0.00 0.00 86 1014.5
20260507042816 50 50 0.0 1.0 0.00 0.00 0.00 85 1014.6
20260507042327 50 49 0.0 1.0 0.00 0.00 0.00 85 1014.5
20260507041849 50 49 0.0 1.0 0.00 0.00 0.00 85 1014.4
20260507041324 50 50 0.0 2.0 0.00 0.00 0.00 85 1014.3
20260507040818 50 49 1.0 2.0 0.00 0.00 0.00 85 1014.3
20260507040315 50 53 1.0 2.0 0.00 0.00 0.00 85 1014.2
20260507035825 50 53 0.0 2.0 0.00 0.00 0.00 85 1014.2
20260507035315 50 52 0.0 2.0 0.00 0.00 0.00 85 1014.2
20260507034816 50 52 0.0 1.0 0.00 0.00 0.00 84 1014.1
20260507034329 50 58 0.0 2.0 0.00 0.00 0.00 84 1014.2
20260507033824 51 58 0.0 3.0 0.00 0.00 0.00 84 1014.1
20260507033318 51 61 1.0 4.0 0.00 0.00 0.00 84 1014.1
20260507032818 51 8 1.0 4.0 0.00 0.00 0.00 84 1014.0
20260507032348 51 341 1.0 4.0 0.00 0.00 0.00 84 1014.0
20260507031822 51 342 1.0 4.0 0.00 0.00 0.00 84 1014.0
20260507031323 51 70 2.0 4.0 0.00 0.00 0.00 83 1014.0
20260507030830 51 353 2.0 4.0 0.00 0.00 0.00 83 1014.0
20260507030332 51 356 1.0 5.0 0.00 0.00 0.00 83 1014.0
20260507025817 51 49 2.0 5.0 0.00 0.00 0.00 83 1013.9
20260507025330 51 13 0.0 3.0 0.00 0.00 0.00 82 1013.9
20260507024847 51 360 1.0 5.0 0.00 0.00 0.00 82 1013.9
20260507024342 51 345 1.0 4.0 0.00 0.00 0.00 82 1013.9
20260507023818 51 347 2.0 4.0 0.00 0.00 0.00 82 1013.9
20260507023314 51 6 1.0 4.0 0.00 0.00 0.00 81 1013.9
20260507022816 52 347 1.0 4.0 0.00 0.00 0.00 81 1013.8
20260507022330 52 346 0.0 4.0 0.00 0.00 0.00 81 1013.8
20260507021823 52 338 1.0 4.0 0.00 0.00 0.00 81 1013.7
20260507021319 52 335 1.0 3.0 0.00 0.00 0.00 80 1013.7
20260507020814 52 33 0.0 3.0 0.00 0.00 0.00 80 1013.7
20260507020334 52 344 1.0 3.0 0.00 0.00 0.00 80 1013.6
20260507015901 52 344 0.0 5.0 0.00 0.00 0.00 80 1013.6
20260507015323 52 358 2.0 5.0 0.00 0.00 0.00 80 1013.5
20260507014841 52 4 1.0 4.0 0.00 0.00 0.00 80 1013.4
20260507014343 52 330 0.0 5.0 0.00 0.00 0.00 80 1013.3
20260507013828 52 330 1.0 5.0 0.00 0.00 0.00 80 1013.4
20260507013328 52 347 0.0 2.0 0.00 0.00 0.00 80 1013.4
20260507012823 52 339 0.0 2.0 0.00 0.00 0.00 79 1013.4
20260507012316 52 325 0.0 3.0 0.00 0.00 0.00 79 1013.4
20260507011839 53 359 1.0 3.0 0.00 0.00 0.00 79 1013.4
20260507011315 53 332 1.0 3.0 0.00 0.00 0.00 78 1013.4
20260507010848 53 44 0.0 1.0 0.00 0.00 0.00 78 1013.4
20260507010321 53 44 0.0 3.0 0.00 0.00 0.00 78 1013.4
20260507005827 53 44 1.0 3.0 0.00 0.00 0.00 77 1013.4
20260507005315 53 69 0.0 2.0 0.00 0.00 0.00 77 1013.4
20260507004817 53 25 0.0 3.0 0.00 0.00 0.00 77 1013.3
20260507004313 53 58 0.0 4.0 0.00 0.00 0.00 77 1013.3
20260507003826 53 353 1.0 5.0 0.00 0.00 0.00 77 1013.3
20260507003322 53 341 2.0 5.0 0.00 0.00 0.00 78 1013.3
20260507002823 53 336 0.0 4.0 0.00 0.00 0.00 78 1013.3
20260507002324 52 308 1.0 4.0 0.00 0.00 0.00 78 1013.2
20260507001827 52 328 1.0 3.0 0.00 0.00 0.00 78 1013.2
20260507001321 52 8 0.0 4.0 0.00 0.00 0.00 79 1013.2
20260507000817 52 268 0.0 0.0 0.00 0.00 0.00 80 1013.2
20260507000337 52 269 0.0 0.0 0.00 0.00 0.00 80 1013.2
20260506235825 51 269 0.0 0.0 0.00 0.00 0.00 80 1013.2
20260506235323 52 268 0.0 0.0 0.00 0.00 0.00 80 1013.2
20260506234831 52 269 0.0 0.0 0.00 0.00 0.00 79 1013.2
20260506234334 52 269 0.0 0.0 0.00 0.00 0.00 80 1013.2
20260506233825 52 268 0.0 0.0 0.00 0.00 0.00 79 1013.2
20260506233326 52 269 0.0 1.0 0.00 0.00 0.00 79 1013.2
20260506232820 52 304 0.0 1.0 0.00 0.00 0.00 79 1013.1
20260506232332 52 69 0.0 0.0 0.00 0.00 0.00 79 1013.0
20260506231822 52 69 0.0 0.0 0.00 0.00 0.00 78 1013.0
20260506231324 52 70 0.0 0.0 0.00 0.00 0.00 77 1012.9
20260506230859 52 69 0.0 0.0 0.00 0.00 0.00 78 1012.9
20260506230400 52 69 0.0 0.0 0.00 0.00 0.00 77 1012.9
20260506225824 52 69 0.0 0.0 0.00 0.00 0.00 77 1012.9
20260506225318 52 69 0.0 0.0 0.00 0.00 0.00 77 1012.9
20260506224821 51 70 0.0 0.0 0.00 0.00 0.00 76 1012.9
20260506224344 51 69 0.0 0.0 0.00 0.00 0.00 77 1012.8
20260506223838 52 69 0.0 0.0 0.00 0.00 0.00 76 1012.9
20260506223332 52 69 0.0 0.0 0.00 0.00 0.00 76 1012.8
20260506222828 52 70 0.0 0.0 0.00 0.00 0.00 76 1012.8
20260506222322 52 69 0.0 0.0 0.00 0.00 0.00 76 1012.8
20260506221817 52 69 0.0 0.0 0.00 0.00 0.00 76 1012.7
20260506221320 52 69 0.0 0.0 0.00 0.00 0.00 75 1012.6
20260506220826 52 69 0.0 0.0 0.00 0.00 0.00 75 1012.7
20260506220341 52 69 0.0 0.0 0.00 0.00 0.00 75 1012.7
20260506215815 52 70 0.0 0.0 0.00 0.00 0.00 75 1012.7
20260506215328 53 69 0.0 0.0 0.00 0.00 0.00 75 1012.7
20260506214823 53 69 0.0 0.0 0.00 0.00 0.00 75 1012.7
20260506214342 53 69 0.0 1.0 0.00 0.00 0.00 75 1012.6
20260506213825 52 69 0.0 1.0 0.00 0.00 0.00 75 1012.6
20260506213328 52 72 0.0 1.0 0.00 0.00 0.00 76 1012.6
20260506212824 52 72 0.0 1.0 0.00 0.00 0.00 77 1012.6
20260506212339 52 96 0.0 1.0 0.00 0.00 0.00 77 1012.5
20260506211833 52 317 0.0 1.0 0.00 0.00 0.00 77 1012.5
20260506211334 52 101 0.0 0.0 0.00 0.00 0.00 77 1012.4
20260506210821 52 101 0.0 0.0 0.00 0.00 0.00 77 1012.5
20260506210316 52 101 0.0 0.0 0.00 0.00 0.00 77 1012.5
20260506205829 52 101 0.0 0.0 0.00 0.00 0.00 76 1012.5
20260506205323 52 100 0.0 0.0 0.00 0.00 0.00 76 1012.4
20260506204818 52 101 0.0 1.0 0.00 0.00 0.00 76 1012.3
20260506204315 52 37 0.0 1.0 0.00 0.00 0.00 76 1012.2
20260506203827 53 37 0.0 0.0 0.00 0.00 0.00 76 1012.2
20260506203328 53 37 0.0 0.0 0.00 0.00 0.00 76 1012.1
20260506202824 53 38 0.0 0.0 0.00 0.00 0.00 75 1012.1
20260506202338 53 37 0.0 0.0 0.00 0.00 0.00 74 1012.1
20260506201831 53 37 0.0 1.0 0.00 0.00 0.00 73 1012.1
20260506201330 53 39 0.0 1.0 0.00 0.00 0.00 73 1012.1
20260506200816 53 360 0.0 2.0 0.00 0.00 0.00 74 1012.0
20260506200335 53 41 1.0 2.0 0.00 0.00 0.00 73 1012.0
20260506195828 53 261 0.0 1.0 0.00 0.00 0.00 74 1012.0
20260506195315 53 260 0.0 1.0 0.00 0.00 0.00 73 1011.9
20260506194829 53 261 0.0 1.0 0.00 0.00 0.00 73 1011.9
20260506194325 53 260 0.0 1.0 0.00 0.00 0.00 73 1011.9
20260506193817 53 260 0.0 1.0 0.00 0.00 0.00 72 1011.9
20260506193314 53 260 0.0 1.0 0.00 0.00 0.00 71 1011.9
20260506192836 54 260 0.0 1.0 0.00 0.00 0.00 71 1011.8
20260506192319 54 41 0.0 2.0 0.00 0.00 0.00 71 1011.7
20260506191819 54 41 1.0 2.0 0.00 0.00 0.00 70 1011.7
20260506191316 54 94 0.0 1.0 0.00 0.00 0.00 70 1011.6
20260506190828 54 6 0.0 4.0 0.00 0.00 0.00 69 1011.6
20260506190331 54 121 2.0 4.0 0.00 0.00 0.00 69 1011.5
20260506185837 54 117 1.0 6.0 0.00 0.00 0.00 69 1011.5
20260506185358 54 35 2.0 6.0 0.00 0.00 0.00 68 1011.4
20260506184831 54 42 2.0 12.0 0.00 0.00 0.00 69 1011.4
20260506184328 54 54 2.0 12.0 0.00 0.00 0.00 68 1011.3
20260506183822 54 347 1.0 10.0 0.00 0.00 0.00 69 1011.3
20260506183318 54 63 3.0 11.0 0.00 0.00 0.00 69 1011.3
20260506182812 54 79 4.0 11.0 0.00 0.00 0.00 69 1011.2
20260506182328 54 179 3.0 9.0 0.00 0.00 0.00 68 1011.1
20260506181829 55 143 2.0 8.0 0.00 0.00 0.00 68 1011.1
20260506181323 55 108 1.0 9.0 0.00 0.00 0.00 67 1011.0
20260506180818 55 13 2.0 9.0 0.00 0.00 0.00 67 1010.8
20260506180313 55 72 3.0 12.0 0.00 0.00 0.00 66 1010.7
20260506175844 55 330 6.0 13.0 0.00 0.00 0.00 65 1010.7
20260506175316 55 56 2.0 10.0 0.00 0.00 0.00 65 1010.5
20260506174813 55 74 6.0 11.0 0.00 0.00 0.00 62 1010.5
20260506174335 56 27 7.0 12.0 0.00 0.00 0.00 62 1010.5
20260506173821 56 84 3.0 11.0 0.00 0.00 0.00 63 1010.4
20260506173323 56 50 6.0 11.0 0.00 0.00 0.00 62 1010.3
20260506172315 56 39 7.0 11.0 0.00 0.00 0.00 62 1010.2
20260506171818 56 335 7.0 11.0 0.00 0.00 0.00 61 1010.1
20260506171314 57 75 4.0 11.0 0.00 0.00 0.00 61 1010.0
20260506170847 57 59 7.0 11.0 0.00 0.00 0.00 60 1010.0
20260506170328 57 53 3.0 13.0 0.00 0.00 0.00 60 1010.0
20260506165839 57 27 7.0 13.0 0.00 0.00 0.00 59 1010.0
20260506165352 57 34 6.0 12.0 0.00 0.00 0.00 60 1009.9
20260506164827 57 44 4.0 11.0 0.00 0.00 0.00 61 1009.9
20260506164322 57 318 6.0 12.0 0.00 0.00 0.00 61 1009.9
20260506163816 57 348 7.0 12.0 0.00 0.00 0.00 61 1009.9
20260506163338 57 21 5.0 13.0 0.00 0.00 0.00 62 1009.8
20260506162814 57 30 6.0 13.0 0.00 0.00 0.00 61 1009.8
20260506162321 57 33 6.0 12.0 0.00 0.00 0.00 61 1009.8
20260506161823 58 25 2.0 8.0 0.00 0.00 0.00 63 1009.8
20260506161346 58 33 5.0 8.0 0.00 0.00 0.00 63 1009.6
20260506160839 58 45 4.0 9.0 0.00 0.00 0.00 64 1009.7
20260506160312 58 316 4.0 10.0 0.00 0.00 0.00 64 1009.6
20260506155816 58 335 5.0 10.0 0.00 0.00 0.00 63 1009.6
20260506155331 58 27 4.0 9.0 0.00 0.00 0.00 63 1009.6
20260506154833 58 24 4.0 9.0 0.00 0.00 0.00 63 1009.6
20260506154328 59 41 6.0 11.0 0.00 0.00 0.00 62 1009.6
20260506153813 59 111 3.0 10.0 0.00 0.00 0.00 63 1009.6
20260506153316 59 11 3.0 8.0 0.00 0.00 0.00 62 1009.6
20260506152829 59 321 3.0 10.0 0.00 0.00 0.00 61 1009.6
20260506152324 59 341 6.0 12.0 0.00 0.00 0.00 60 1009.6
20260506151829 60 16 7.0 11.0 0.00 0.00 0.00 61 1009.5
20260506151320 59 354 4.0 11.0 0.00 0.00 0.00 63 1009.5
20260506150824 59 61 5.0 11.0 0.00 0.00 0.00 63 1009.5
20260506150319 59 345 4.0 11.0 0.00 0.00 0.00 64 1009.5
20260506145814 58 312 3.0 8.0 0.00 0.00 0.00 64 1009.5
20260506145320 58 268 5.0 8.0 0.00 0.00 0.00 63 1009.6
20260506144823 59 347 3.0 7.0 0.00 0.00 0.00 63 1009.5
20260506144339 59 46 2.0 9.0 0.00 0.00 0.00 62 1009.5
20260506143812 59 47 5.0 9.0 0.00 0.00 0.00 60 1009.5
20260506143335 59 358 5.0 10.0 0.00 0.00 0.00 59 1009.5
20260506142829 59 25 5.0 10.0 0.00 0.00 0.00 59 1009.5
20260506142324 59 1 4.0 10.0 0.00 0.00 0.00 60 1009.5
20260506141817 58 49 5.0 10.0 0.00 0.00 0.00 60 1009.5
20260506141320 58 290 3.0 12.0 0.00 0.00 0.00 60 1009.5
20260506140841 58 33 5.0 12.0 0.00 0.00 0.00 58 1009.5
20260506140334 58 300 6.0 11.0 0.00 0.00 0.00 61 1009.5
20260506135828 58 298 7.0 11.0 0.00 0.00 0.00 63 1009.6
20260506135325 58 78 4.0 11.0 0.00 0.00 0.00 64 1009.5
20260506134817 58 312 5.0 11.0 0.00 0.00 0.00 65 1009.5
20260506134340 58 354 5.0 10.0 0.00 0.00 0.00 66 1009.5
20260506133820 58 319 6.0 10.0 0.00 0.00 0.00 65 1009.5
20260506133312 59 319 2.0 10.0 0.00 0.00 0.00 65 1009.4
20260506132814 59 18 5.0 10.0 0.00 0.00 0.00 63 1009.5
20260506131827 59 79 7.0 15.0 0.00 0.00 0.00 61 1009.4
20260506131330 59 323 8.0 15.0 0.00 0.00 0.00 62 1009.4
20260506130817 59 25 3.0 9.0 0.00 0.00 0.00 63 1009.3
20260506130335 59 40 5.0 10.0 0.00 0.00 0.00 64 1009.3
20260506125848 59 309 4.0 11.0 0.00 0.00 0.00 64 1009.2
20260506125315 59 338 6.0 11.0 0.00 0.00 0.00 63 1009.2
20260506124835 59 283 4.0 11.0 0.00 0.00 0.00 63 1009.2
20260506124348 59 341 6.0 12.0 0.00 0.00 0.00 63 1009.2
20260506123817 59 101 4.0 11.0 0.00 0.00 0.00 64 1009.2
20260506123337 59 338 5.0 9.0 0.00 0.00 0.00 65 1009.2
20260506122859 59 19 3.0 9.0 0.00 0.00 0.00 65 1009.2
20260506122326 58 24 3.0 9.0 0.00 0.00 0.00 66 1009.1
20260506121826 58 305 5.0 10.0 0.00 0.00 0.00 67 1009.1
20260506121320 58 354 5.0 10.0 0.00 0.00 0.00 67 1009.1
20260506120816 58 46 4.0 11.0 0.00 0.00 0.00 69 1009.2
20260506120330 58 11 5.0 11.0 0.00 0.00 0.00 68 1009.1
20260506115836 59 318 6.0 13.0 0.00 0.00 0.00 67 1009.1
20260506115329 59 346 9.0 17.0 0.00 0.00 0.00 66 1009.0
20260506114821 60 85 8.0 17.0 0.00 0.00 0.00 66 1009.0
20260506114323 60 333 6.0 20.0 0.00 0.00 0.00 67 1009.0
20260506113829 60 21 6.0 20.0 0.00 0.00 0.00 67 1009.0
20260506113330 60 300 5.0 15.0 0.00 0.00 0.00 66 1009.0
20260506112826 60 336 7.0 14.0 0.00 0.00 0.00 67 1009.0
20260506112319 59 1 6.0 14.0 0.00 0.00 0.00 67 1008.9
20260506111814 60 11 4.0 14.0 0.00 0.00 0.00 69 1008.9
20260506111336 60 360 7.0 14.0 0.00 0.00 0.00 67 1009.0
20260506110823 59 33 6.0 10.0 0.00 0.00 0.00 69 1009.0
20260506110325 59 30 5.0 10.0 0.00 0.00 0.00 69 1009.1
20260506105826 59 148 4.0 12.0 0.00 0.00 0.00 69 1009.1
20260506105321 58 328 5.0 13.0 0.00 0.00 0.00 70 1009.1
20260506104816 58 305 6.0 14.0 0.00 0.00 0.00 71 1009.2
20260506104337 58 5 6.0 14.0 0.00 0.00 0.00 71 1009.1
20260506103824 58 298 5.0 14.0 0.00 0.00 0.00 72 1009.1
20260506103319 58 338 6.0 12.0 0.00 0.00 0.00 73 1009.2
20260506102819 58 19 6.0 12.0 0.00 0.00 0.00 74 1009.2
20260506102333 58 327 4.0 14.0 0.00 0.00 0.00 76 1009.1
20260506101825 57 38 6.0 14.0 0.00 0.00 0.00 76 1009.1
20260506101327 58 330 7.0 13.0 0.00 0.00 0.00 77 1009.1
20260506100813 57 322 3.0 13.0 0.00 0.00 0.00 78 1009.1
20260506100335 57 82 5.0 11.0 0.00 0.00 0.00 78 1009.0
20260506095818 57 75 6.0 11.0 0.00 0.00 0.00 79 1009.0
20260506095328 57 342 3.0 13.0 0.00 0.00 0.00 80 1009.0
20260506094823 56 267 2.0 13.0 0.00 0.00 0.00 80 1009.0
20260506094321 56 309 8.0 11.0 0.00 0.00 0.00 81 1009.0
20260506093828 56 274 5.0 10.0 0.00 0.00 0.00 82 1009.0
20260506093330 56 336 8.0 14.0 0.00 0.00 0.00 81 1009.0
20260506092821 55 319 6.0 14.0 0.00 0.00 0.00 82 1009.0
20260506092336 55 326 5.0 13.0 0.00 0.00 0.00 83 1009.0
20260506091814 55 103 4.0 11.0 0.00 0.00 0.00 84 1008.9
20260506091351 54 309 5.0 11.0 0.00 0.00 0.00 86 1008.9
20260506090818 54 3 5.0 11.0 0.00 0.00 0.00 90 1008.9
20260506090340 53 333 4.0 10.0 0.00 0.00 0.00 92 1008.9
20260506085852 52 70 4.0 8.0 0.00 0.00 0.00 92 1008.9
20260506085318 52 21 5.0 11.0 0.00 0.00 0.00 92 1008.9
20260506084813 51 324 4.0 11.0 0.00 0.00 0.00 92 1008.9
20260506084315 51 349 4.0 9.0 0.00 0.00 0.00 92 1008.8
20260506083823 51 22 5.0 11.0 0.00 0.00 0.00 92 1008.8
20260506083319 51 5 4.0 11.0 0.00 0.00 0.00 92 1008.8
20260506082840 50 1 5.0 11.0 0.00 0.00 0.00 92 1008.8
20260506082335 50 325 4.0 9.0 0.00 0.00 0.00 92 1008.8
20260506081830 50 346 4.0 10.0 0.00 0.00 0.00 92 1008.8
20260506081332 50 8 5.0 11.0 0.00 0.00 0.00 92 1008.8
20260506080816 50 25 6.0 10.0 0.00 0.00 0.00 92 1008.7
20260506080339 50 341 6.0 10.0 0.00 0.00 0.00 92 1008.7
20260506073352 49 6 4.0 9.0 0.00 0.00 0.00 92 1008.7
20260506072825 49 15 2.0 8.0 0.00 0.00 0.00 92 1008.7
20260506072314 49 296 4.0 8.0 0.00 0.00 0.00 92 1008.6
20260506071835 49 325 5.0 8.0 0.00 0.00 0.00 92 1008.6
20260506071315 49 58 5.0 8.0 0.00 0.00 0.00 92 1008.6
20260506070844 49 51 4.0 9.0 0.00 0.00 0.00 92 1008.6
20260506070337 49 352 3.0 8.0 0.00 0.00 0.00 92 1008.7